Wind_Speed
35 38 30 26 32 32 35 32 29 30 27 29 27 31 31 34 34 28 21 42 75 78 73 76 75 71 76 78 68 57 62 56 64 67 61 63 51 47 46 47 44 41 22 24
35 32 27 28 27 28 36 35 32 31 29 30 33 34 36 40 37 35 32 28 39 87 76 77 76 68 69 79 75 63 60 57 58 54 67 46 52 48 44 47 44 32 23 20
37 31 30 28 26 25 29 30 31 31 33 37 42 39 36 33 37 37 34 29 27 41 89 80 76 75 69 77 78 67 61 56 54 57 41 61 49 51 47 30 26 20 18 19
41 28 30 29 26 27 27 27 32 34 39 40 39 41 33 35 37 36 34 33 28 31 46 88 81 76 77 71 78 74 66 55 54 48 51 45 47 41 31 34 34 24 21 22
40 31 28 30 30 28 26 29 32 35 35 38 39 42 26 24 31 34 33 33 32 32 27 79 88 83 75 75 83 80 71 58 52 45 43 46 45 40 49 42 35 21 22 26
36 27 27 25 26 26 26 28 32 32 33 39 34 35 36 26 27 28 33 36 37 36 38 41 85 91 78 76 85 82 74 62 50 48 46 50 44 42 56 49 34 24 26 27
23 23 23 23 21 26 29 31 33 36 39 41 40 46 46 29 23 25 31 34 35 37 40 38 62 92 85 79 87 85 77 65 55 53 49 49 50 52 57 48 38 35 33 34
30 9 20 19 23 30 29 32 38 43 41 43 45 49 41 37 33 37 32 33 36 38 42 43 45 82 92 85 86 86 79 70 60 55 53 52 60 51 57 61 49 43 37 28
31 20 13 21 25 32 29 25 27 33 34 38 36 33 35 33 29 30 29 33 39 36 37 40 51 66 96 89 88 88 80 75 58 54 55 56 53 50 52 59 50 43 32 23
31 28 13 20 24 22 27 32 26 24 29 33 32 27 25 24 21 20 22 29 37 36 31 36 46 54 71 89 93 88 82 69 58 56 55 50 51 55 48 47 49 36 23 29
30 30 19 23 25 22 30 23 23 23 25 29 34 31 25 23 23 21 27 25 28 32 33 40 43 60 63 80 94 93 84 68 62 58 54 49 45 56 46 40 42 35 30 25
23 28 30 25 25 25 24 22 26 30 29 32 32 17 15 16 24 23 26 29 34 35 33 32 41 65 70 74 87 94 88 71 62 59 56 45 53 44 39 43 40 22 22 20
26 28 34 30 25 26 22 26 28 31 31 35 40 29 26 25 25 30 22 33 38 34 28 30 31 61 66 56 63 82 80 65 57 57 56 55 57 50 32 28 33 32 19 16
28 31 30 24 23 27 22 23 31 32 37 40 43 39 32 27 31 25 20 28 37 31 26 20 34 59 67 68 61 75 70 58 56 58 57 58 58 56 42 27 25 8 14 16
30 29 25 24 24 27 25 25 30 36 40 42 34 35 30 31 26 21 21 25 36 32 29 28 40 54 64 65 65 63 63 61 60 59 58 55 58 48 29 27 27 19 18 20
31 26 25 21 23 28 27 30 32 36 37 40 39 37 42 38 37 30 24 26 32 43 34 30 35 48 60 70 60 65 61 59 60 60 58 55 55 36 38 36 25 20 20 20
30 27 27 20 24 24 26 27 32 34 31 38 34 29 28 37 37 37 38 30 29 37 42 37 37 39 62 62 63 62 56 49 54 55 60 53 54 46 45 33 23 24 23 24
28 30 30 27 19 17 26 33 34 34 30 28 34 30 24 29 23 29 41 36 35 41 43 48 43 40 64 59 59 59 51 33 51 85 71 57 54 54 45 30 27 25 25 23
27 30 31 30 22 28 33 36 38 37 22 32 27 28 25 19 34 23 38 38 40 46 50 44 46 46 60 58 57 61 51 34 55 44 57 66 58 46 35 31 26 27 25 21
24 28 32 30 30 37 36 36 35 36 33 21 20 11 13 13 11 28 35 40 47 46 35 43 45 54 55 51 49 52 45 31 65 53 63 59 46 39 33 29 32 26 20 22
23 24 23 20 28 33 36 30 33 31 25 22 9 7 6 13 25 28 40 50 49 52 45 43 49 52 46 43 36 49 53 42 43 44 47 44 42 35 33 31 24 22 23 22
25 24 20 22 34 38 32 24 27 25 21 17 7 11 18 28 32 32 36 40 44 45 58 46 52 46 43 43 33 28 39 40 48 41 47 42 37 35 30 25 23 22 23 25
23 23 23 26 32 33 27 22 21 19 29 19 19 27 26 28 33 33 37 50 35 45 43 58 53 45 32 35 22 32 33 55 52 46 40 36 34 29 26 24 24 26 26 23
20 20 21 24 26 29 14 19 19 22 29 33 28 32 32 35 41 41 38 36 40 47 45 44 40 41 37 34 28 53 54 50 46 41 36 33 30 29 28 28 28 24 22 20
22 20 18 23 24 21 9 18 14 19 28 29 37 38 32 34 38 39 26 47 49 41 38 40 36 35 29 33 41 46 48 45 38 36 33 31 30 29 27 24 22 18 17 15
20 19 15 19 24 14 7 6 11 17 19 27 38 32 29 20 24 26 36 40 44 51 50 43 40 37 46 46 50 48 44 41 34 32 30 28 25 22 17 15 15 12 15 15
Wind_Direction
310 302 303 280 276 263 250 250 258 256 257 267 267 258 250 254 254 246 245 235 219 209 208 212 220 224 225 234 234 227 228 223 225 225 229 210 202 204 212 216 218 221 218 240
308 307 292 279 276 261 252 255 262 258 258 265 267 268 256 251 254 259 256 241 228 218 208 206 214 220 220 228 234 228 232 223 225 230 238 227 200 203 209 221 223 226 207 237
311 314 283 282 270 263 259 265 268 270 272 270 268 266 260 260 259 256 255 238 238 227 214 208 207 216 217 223 229 231 231 233 227 234 239 232 223 242 228 213 226 236 233 245
311 300 273 272 268 265 257 264 274 281 278 277 274 270 257 253 253 257 259 252 241 232 226 212 206 207 216 216 226 230 231 231 231 232 230 230 247 236 205 206 218 222 232 241
313 306 287 266 267 264 267 272 276 278 279 278 274 276 270 265 254 250 252 250 236 231 232 215 210 205 214 216 224 227 229 229 233 228 228 230 235 241 250 214 219 217 231 235
307 302 295 283 269 272 275 275 272 271 275 273 279 283 273 272 258 253 242 241 233 231 230 217 213 209 210 213 221 225 227 224 228 223 221 223 230 228 225 212 215 214 227 237
302 295 286 278 276 275 279 278 276 267 268 272 278 272 276 267 246 258 245 242 235 238 231 228 216 214 206 213 216 223 227 220 216 217 219 219 222 221 222 224 210 218 224 237
314 298 288 281 288 284 273 272 274 277 277 272 268 269 274 277 264 253 240 237 240 238 240 235 226 216 207 212 212 221 223 221 211 211 218 220 221 226 230 223 217 216 223 236
313 315 314 294 300 293 284 288 283 283 280 279 276 275 277 278 269 273 247 252 245 246 238 249 222 213 208 211 213 218 222 221 209 209 217 220 224 230 226 214 206 209 209 219
315 309 328 322 303 284 288 294 290 287 288 288 285 280 282 284 260 270 250 241 242 246 241 229 226 211 206 208 211 214 218 215 208 210 219 221 229 233 206 203 201 193 182 215
317 314 333 324 331 301 303 293 286 286 276 281 289 289 289 279 260 252 236 230 227 234 219 223 222 205 196 205 209 211 214 213 210 206 215 219 236 196 195 204 198 188 197 219
320 315 329 323 320 318 305 293 284 281 284 280 285 295 290 292 257 251 237 229 221 230 219 219 215 202 193 201 206 211 215 216 208 207 207 206 228 179 190 207 213 205 211 206
321 315 317 314 319 307 281 281 279 281 284 280 275 288 287 279 275 261 243 235 214 225 222 226 216 201 199 195 202 206 209 214 206 207 204 205 208 204 210 216 242 216 198 207
318 319 313 317 319 302 288 279 279 281 278 287 282 284 267 260 254 257 244 221 214 228 233 222 204 200 193 200 204 202 203 207 206 206 209 209 210 221 233 225 214 169 207 219
322 324 317 320 305 295 292 286 274 274 282 285 290 289 268 250 236 241 236 228 221 214 215 207 199 198 192 202 201 196 198 203 204 206 206 209 212 211 213 223 224 194 214 225
329 324 320 328 308 298 298 297 292 294 292 294 294 293 275 272 248 230 240 228 216 220 202 195 193 192 196 197 193 186 191 204 205 208 207 205 215 205 212 208 176 198 216 223
331 325 321 332 303 296 300 300 306 302 307 307 300 286 278 259 254 241 237 217 208 205 195 193 196 191 199 183 181 181 187 194 211 217 213 210 208 202 207 190 178 205 212 213
332 327 326 325 313 317 319 329 318 316 317 293 292 286 281 252 257 241 218 208 199 198 195 190 196 189 188 179 180 176 179 212 208 207 205 201 196 195 190 164 182 201 205 209
335 324 326 327 320 330 336 335 332 321 322 318 306 300 277 258 245 253 203 194 190 187 181 191 190 191 183 178 184 190 180 152 198 212 193 183 191 169 157 170 178 201 201 214
332 328 324 325 327 337 340 340 332 321 319 323 320 294 298 255 190 178 174 186 182 184 178 180 174 184 178 180 187 202 181 195 171 172 166 152 144 153 160 168 191 194 202 220
333 326 326 326 327 341 344 339 337 349 350 339 342 345 303 171 163 167 165 172 175 164 163 163 178 171 173 180 192 201 213 195 160 162 155 140 152 154 165 184 183 195 211 223
335 337 341 336 346 349 350 355 354 14 8 22 26 52 112 145 158 159 157 169 171 153 158 169 168 166 176 184 193 205 212 200 194 168 148 143 148 167 175 178 189 204 216 226
342 344 345 344 348 343 345 360 7 26 23 47 87 98 123 138 141 147 160 177 149 157 162 156 160 179 169 170 186 198 158 142 144 138 138 156 163 166 175 187 199 210 220 230
335 333 338 344 347 348 6 26 35 62 86 77 101 116 121 131 142 148 154 147 146 156 160 166 163 172 174 180 167 148 143 138 138 141 152 157 166 177 184 193 205 216 226 238
332 334 334 337 345 350 49 46 66 76 87 103 107 128 133 150 143 139 151 146 135 144 161 166 172 173 172 177 169 146 140 134 142 154 161 166 174 180 190 200 212 223 237 247
326 337 330 331 355 6 77 64 63 101 97 117 104 130 139 140 71 131 126 129 150 138 139 153 163 157 164 170 161 149 142 145 153 159 165 172 179 187 195 206 221 230 245 261
Height
5707 5701 5698 5694 5691 5689 5690 5691 5693 5695 5693 5688 5689 5692 5696 5696 5696 5701 5704 5709 5712 5722 5735 5742 5745 5744 5748 5758 5775 5791 5797 5810 5817 5822 5829 5827 5837 5846 5854 5857 5858 5862 5867 5872
5697 5694 5688 5684 5683 5682 5682 5683 5685 5686 5685 5680 5679 5679 5682 5684 5687 5690 5694 5699 5701 5707 5719 5728 5734 5734 5738 5749 5761 5778 5788 5802 5809 5816 5814 5822 5827 5835 5840 5850 5852 5857 5861 5867
5688 5686 5678 5676 5675 5674 5675 5674 5674 5675 5674 5672 5668 5669 5672 5676 5676 5678 5682 5686 5690 5693 5704 5711 5721 5725 5728 5737 5748 5764 5778 5792 5801 5806 5810 5814 5823 5832 5837 5843 5847 5852 5857 5861
5680 5676 5670 5667 5666 5664 5664 5666 5664 5664 5661 5658 5658 5653 5662 5664 5665 5667 5671 5674 5679 5684 5687 5697 5704 5711 5718 5726 5738 5750 5766 5780 5792 5799 5806 5811 5818 5825 5829 5832 5843 5849 5853 5856
5670 5665 5660 5658 5657 5657 5659 5657 5656 5654 5653 5650 5649 5646 5649 5655 5655 5656 5658 5660 5665 5670 5674 5680 5689 5699 5703 5715 5726 5736 5752 5769 5783 5791 5798 5807 5814 5821 5823 5831 5839 5843 5846 5852
5660 5659 5653 5652 5651 5650 5649 5648 5645 5644 5642 5638 5642 5643 5627 5644 5645 5646 5645 5646 5651 5656 5661 5665 5671 5684 5691 5701 5713 5725 5739 5758 5771 5783 5793 5800 5807 5813 5816 5824 5832 5835 5840 5844
5659 5653 5648 5646 5643 5641 5639 5637 5635 5635 5633 5630 5629 5626 5621 5632 5634 5635 5634 5637 5641 5644 5647 5652 5658 5662 5679 5686 5700 5713 5727 5746 5761 5773 5786 5794 5799 5807 5811 5818 5824 5828 5831 5836
5643 5647 5642 5641 5638 5631 5632 5631 5628 5623 5621 5619 5619 5611 5617 5618 5621 5623 5624 5627 5630 5633 5637 5642 5644 5651 5663 5673 5690 5702 5716 5735 5751 5763 5775 5782 5788 5794 5799 5811 5817 5820 5822 5829
5636 5637 5640 5633 5632 5625 5621 5622 5621 5614 5612 5605 5606 5606 5605 5605 5608 5609 5613 5615 5619 5621 5625 5630 5633 5638 5648 5663 5677 5693 5708 5724 5742 5753 5764 5771 5778 5786 5793 5800 5807 5809 5813 5819
5634 5626 5632 5628 5621 5619 5615 5613 5612 5607 5601 5595 5595 5596 5597 5599 5599 5598 5600 5602 5607 5610 5615 5618 5623 5629 5640 5651 5666 5684 5700 5718 5734 5741 5750 5762 5767 5773 5786 5792 5794 5797 5802 5813
5627 5623 5626 5620 5616 5613 5609 5606 5603 5601 5597 5592 5587 5586 5590 5590 5589 5591 5592 5593 5596 5600 5604 5605 5611 5619 5629 5642 5656 5674 5692 5707 5722 5730 5742 5753 5754 5748 5771 5778 5786 5789 5795 5808
5624 5617 5615 5614 5610 5605 5602 5600 5598 5595 5593 5586 5583 5578 5580 5581 5581 5582 5585 5584 5585 5591 5595 5595 5601 5611 5621 5633 5647 5665 5685 5702 5715 5724 5737 5744 5741 5750 5766 5771 5781 5788 5796 5802
5619 5614 5608 5608 5604 5598 5596 5593 5590 5586 5583 5580 5575 5574 5573 5573 5572 5570 5575 5577 5581 5584 5587 5593 5597 5610 5622 5632 5645 5661 5681 5697 5709 5718 5729 5741 5746 5739 5761 5767 5775 5783 5791 5796
5614 5612 5605 5601 5597 5590 5590 5588 5582 5578 5572 5569 5564 5563 5564 5564 5562 5564 5567 5572 5576 5580 5584 5589 5593 5602 5616 5630 5639 5655 5677 5691 5703 5712 5722 5733 5746 5752 5758 5763 5772 5775 5786 5793
5610 5605 5600 5595 5590 5585 5582 5578 5575 5570 5564 5556 5553 5549 5552 5552 5554 5555 5557 5562 5569 5574 5578 5586 5595 5601 5611 5623 5635 5651 5669 5680 5692 5706 5716 5728 5737 5747 5750 5756 5768 5776 5783 5787
5605 5599 5594 5591 5584 5577 5573 5569 5564 5558 5553 5545 5539 5536 5533 5537 5540 5543 5547 5550 5556 5566 5573 5581 5588 5598 5603 5613 5631 5647 5664 5676 5687 5696 5710 5721 5729 5737 5749 5755 5760 5771 5777 5782
5600 5594 5588 5586 5578 5573 5569 5562 5555 5548 5541 5531 5525 5522 5519 5518 5522 5527 5534 5540 5548 5556 5567 5576 5584 5593 5603 5615 5629 5646 5661 5674 5681 5693 5704 5715 5724 5736 5746 5750 5756 5767 5774 5781
5596 5589 5583 5576 5572 5568 5562 5554 5544 5535 5529 5522 5515 5511 5506 5505 5508 5510 5518 5530 5540 5547 5557 5570 5581 5590 5602 5613 5630 5647 5660 5661 5665 5655 5686 5706 5719 5732 5740 5745 5755 5765 5770 5775
5593 5585 5578 5571 5567 5563 5555 5545 5534 5524 5524 5513 5504 5498 5496 5496 5495 5499 5506 5523 5531 5541 5554 5566 5578 5587 5603 5617 5632 5640 5654 5652 5660 5668 5678 5699 5713 5724 5732 5743 5750 5761 5766 5771
5590 5583 5576 5569 5562 5554 5548 5539 5529 5519 5510 5502 5496 5491 5488 5487 5488 5492 5502 5516 5528 5541 5553 5564 5577 5593 5605 5623 5636 5640 5647 5654 5658 5661 5674 5691 5705 5721 5733 5741 5752 5758 5763 5769
5588 5584 5575 5570 5561 5556 5545 5534 5525 5514 5510 5499 5493 5487 5484 5485 5489 5496 5503 5513 5529 5542 5555 5569 5585 5601 5613 5626 5635 5642 5646 5665 5672 5680 5685 5693 5713 5725 5734 5742 5746 5754 5762 5765
5585 5578 5572 5568 5559 5548 5541 5536 5526 5518 5510 5501 5494 5491 5488 5489 5495 5506 5518 5524 5533 5548 5560 5582 5594 5607 5618 5629 5640 5645 5655 5660 5670 5686 5690 5703 5714 5723 5732 5740 5747 5752 5758 5762
5584 5577 5572 5568 5561 5554 5544 5537 5530 5524 5514 5507 5504 5503 5503 5507 5512 5518 5527 5532 5545 5553 5557 5583 5598 5612 5623 5636 5642 5653 5658 5663 5673 5685 5694 5705 5715 5723 5731 5737 5744 5751 5755 5759
5583 5578 5573 5568 5563 5556 5549 5544 5538 5533 5528 5522 5518 5518 5522 5526 5529 5532 5538 5543 5547 5564 5579 5590 5604 5619 5632 5640 5650 5657 5663 5668 5678 5689 5700 5708 5716 5725 5731 5738 5744 5748 5752 5755
5581 5578 5574 5569 5564 5559 5555 5551 5548 5546 5542 5540 5539 5538 5539 5541 5547 5548 5549 5550 5562 5580 5590 5602 5613 5623 5635 5646 5658 5659 5665 5675 5684 5694 5703 5710 5718 5724 5730 5735 5740 5744 5749 5751
5580 5578 5575 5570 5565 5559 5559 5558 5556 5555 5553 5553 5554 5555 5556 5556 5559 5560 5565 5571 5581 5590 5597 5611 5620 5627 5636 5644 5659 5665 5671 5679 5689 5697 5705 5712 5719 5724 5729 5732 5737 5740 5744 5744